Time,TemperatureF,DewpointF,PressureIn,WindDirection,WindDirectionDegrees,WindSpeedMPH,WindSpeedGustMPH,Humidity,HourlyPrecipIn,Conditions,Clouds,dailyrainin,SoftwareType,DateUTC
2013-01-20 00:04:00,55.0,51.6,30.17,ESE,115,1.0,4.0,88,0.00,,,0.00,meteohub,2013-01-20 06:04:00,
2013-01-20 00:09:00,54.9,51.4,30.17,ESE,112,2.0,3.0,88,0.00,,,0.00,meteohub,2013-01-20 06:09:00,
2013-01-20 00:14:00,54.9,51.6,30.17,ESE,109,0.0,3.0,89,0.00,,,0.00,meteohub,2013-01-20 06:14:00,
2013-01-20 00:19:00,54.7,51.4,30.17,ESE,109,0.0,3.0,89,0.00,,,0.00,meteohub,2013-01-20 06:19:00,
2013-01-20 00:24:00,54.5,51.3,30.17,ESE,109,0.0,2.0,89,0.00,,,0.00,meteohub,2013-01-20 06:24:00,
2013-01-20 00:29:00,54.5,51.6,30.17,ESE,108,0.0,2.0,90,0.00,,,0.00,meteohub,2013-01-20 06:29:00,
2013-01-20 00:34:00,54.3,51.4,30.17,ESE,105,0.0,1.0,90,0.00,,,0.00,meteohub,2013-01-20 06:34:00,
2013-01-20 00:39:00,54.3,51.4,30.17,ESE,119,1.0,1.0,90,0.00,,,0.00,meteohub,2013-01-20 06:39:00,
2013-01-20 00:44:00,54.3,51.4,30.17,SE,130,0.0,1.0,90,0.00,,,0.00,meteohub,2013-01-20 06:44:00,
2013-01-20 00:49:00,54.1,51.6,30.17,SE,129,0.0,2.0,91,0.00,,,0.00,meteohub,2013-01-20 06:49:00,
2013-01-20 00:54:00,54.1,51.6,30.17,SE,128,0.0,2.0,91,0.00,,,0.00,meteohub,2013-01-20 06:54:00,
2013-01-20 00:59:00,54.0,51.4,30.16,SE,129,0.0,2.0,91,0.00,,,0.00,meteohub,2013-01-20 06:59:00,
2013-01-20 01:05:00,53.8,51.3,30.17,SE,128,0.0,0.0,91,0.00,,,0.00,meteohub,2013-01-20 07:05:00,
2013-01-20 01:10:00,53.8,51.4,30.17,SE,128,0.0,1.0,92,0.00,,,0.00,meteohub,2013-01-20 07:10:00,
2013-01-20 01:15:00,53.8,51.8,30.17,SE,128,0.0,1.0,93,0.00,,,0.00,meteohub,2013-01-20 07:15:00,
2013-01-20 01:20:00,53.6,51.3,30.17,SE,129,0.0,1.0,92,0.00,,,0.00,meteohub,2013-01-20 07:20:00,
2013-01-20 01:25:00,53.2,50.9,30.16,SE,129,0.0,1.0,92,0.00,,,0.00,meteohub,2013-01-20 07:25:00,
2013-01-20 01:30:00,53.2,50.9,30.16,SE,128,0.0,1.0,92,0.00,,,0.00,meteohub,2013-01-20 07:30:00,
2013-01-20 01:35:00,53.1,51.1,30.16,SE,128,0.0,0.0,93,0.00,,,0.00,meteohub,2013-01-20 07:35:00,
2013-01-20 01:40:00,53.1,51.1,30.16,SE,128,0.0,0.0,93,0.00,,,0.00,meteohub,2013-01-20 07:40:00,
2013-01-20 01:45:00,53.1,51.1,30.16,SE,129,0.0,0.0,93,0.00,,,0.00,meteohub,2013-01-20 07:45:00,
2013-01-20 01:50:00,53.2,51.6,30.16,SE,128,0.0,0.0,94,0.00,,,0.00,meteohub,2013-01-20 07:50:00,
2013-01-20 01:55:00,53.2,51.6,30.16,SE,125,0.0,0.0,94,0.00,,,0.00,meteohub,2013-01-20 07:55:00,
2013-01-20 02:00:00,53.1,51.4,30.16,SE,124,0.0,0.0,94,0.00,,,0.00,meteohub,2013-01-20 08:00:00,
2013-01-20 02:05:00,52.7,51.1,30.16,SE,124,0.0,0.0,94,0.00,,,0.00,meteohub,2013-01-20 08:05:00,
2013-01-20 02:10:00,52.5,50.9,30.16,SE,124,0.0,0.0,94,0.00,,,0.00,meteohub,2013-01-20 08:10:00,
2013-01-20 02:15:00,52.5,50.9,30.16,SE,124,0.0,0.0,94,0.00,,,0.00,meteohub,2013-01-20 08:15:00,
2013-01-20 02:20:00,52.3,50.9,30.15,ESE,119,0.0,0.0,95,0.00,,,0.00,meteohub,2013-01-20 08:20:00,
2013-01-20 02:25:00,52.2,50.7,30.16,SE,124,0.0,0.0,95,0.00,,,0.00,meteohub,2013-01-20 08:25:00,
2013-01-20 02:30:00,52.0,50.5,30.16,SE,124,0.0,0.0,95,0.00,,,0.00,meteohub,2013-01-20 08:30:00,
2013-01-20 02:35:00,51.8,50.4,30.15,SE,124,0.0,0.0,95,0.00,,,0.00,meteohub,2013-01-20 08:35:00,
2013-01-20 02:40:00,51.4,50.0,30.15,SE,124,0.0,0.0,95,0.00,,,0.00,meteohub,2013-01-20 08:40:00,
2013-01-20 02:45:00,51.1,49.6,30.15,SE,124,0.0,0.0,95,0.00,,,0.00,meteohub,2013-01-20 08:45:00,
2013-01-20 02:50:00,51.3,49.8,30.15,SE,124,0.0,0.0,95,0.00,,,0.00,meteohub,2013-01-20 08:50:00,
2013-01-20 02:55:00,51.3,50.2,30.15,SE,124,0.0,0.0,96,0.00,,,0.00,meteohub,2013-01-20 08:55:00,
2013-01-20 03:00:00,51.1,50.0,30.15,SE,124,0.0,0.0,96,0.00,,,0.00,meteohub,2013-01-20 09:00:00,
2013-01-20 03:05:00,50.9,49.5,30.14,SE,124,0.0,0.0,95,0.00,,,0.00,meteohub,2013-01-20 09:05:00,
2013-01-20 03:10:00,50.9,49.8,30.15,SE,124,0.0,0.0,96,0.00,,,0.00,meteohub,2013-01-20 09:10:00,
2013-01-20 03:15:00,50.7,49.3,30.15,SE,124,0.0,0.0,95,0.00,,,0.00,meteohub,2013-01-20 09:15:00,
2013-01-20 03:20:00,50.5,49.5,30.15,SE,124,0.0,0.0,96,0.00,,,0.00,meteohub,2013-01-20 09:20:00,
2013-01-20 03:25:00,51.1,50.0,30.15,SE,124,0.0,0.0,96,0.00,,,0.00,meteohub,2013-01-20 09:25:00,
2013-01-20 03:30:00,50.7,49.6,30.15,SE,124,0.0,0.0,96,0.00,,,0.00,meteohub,2013-01-20 09:30:00,
2013-01-20 03:36:00,50.5,49.5,30.14,SE,124,0.0,0.0,96,0.00,,,0.00,meteohub,2013-01-20 09:36:00,
2013-01-20 03:41:00,50.4,49.3,30.15,SE,124,0.0,1.0,96,0.00,,,0.00,meteohub,2013-01-20 09:41:00,
2013-01-20 03:46:00,50.2,49.1,30.14,ESE,122,0.0,1.0,96,0.00,,,0.00,meteohub,2013-01-20 09:46:00,
2013-01-20 03:51:00,50.4,49.3,30.14,ESE,122,0.0,1.0,96,0.00,,,0.00,meteohub,2013-01-20 09:51:00,
2013-01-20 03:56:00,50.4,49.3,30.14,ESE,122,0.0,1.0,96,0.00,,,0.00,meteohub,2013-01-20 09:56:00,
2013-01-20 04:01:00,50.4,49.3,30.14,ESE,121,0.0,0.0,96,0.00,,,0.00,meteohub,2013-01-20 10:01:00,
2013-01-20 04:06:00,50.4,49.5,30.14,ESE,121,0.0,0.0,97,0.00,,,0.00,meteohub,2013-01-20 10:06:00,
2013-01-20 04:11:00,50.4,49.5,30.14,ESE,121,0.0,0.0,97,0.00,,,0.00,meteohub,2013-01-20 10:11:00,
2013-01-20 04:16:00,49.8,48.7,30.14,NE,39,2.0,2.0,96,0.00,,,0.00,meteohub,2013-01-20 10:16:00,
2013-01-20 04:21:00,49.6,48.6,30.14,NNE,15,0.0,2.0,96,0.00,,,0.00,meteohub,2013-01-20 10:21:00,
2013-01-20 04:26:00,49.6,48.6,30.14,NNE,15,0.0,2.0,96,0.00,,,0.00,meteohub,2013-01-20 10:26:00,
2013-01-20 04:31:00,49.5,48.6,30.14,NNE,16,0.0,2.0,97,0.00,,,0.00,meteohub,2013-01-20 10:31:00,
2013-01-20 04:36:00,49.5,48.6,30.14,NNE,15,0.0,1.0,97,0.00,,,0.00,meteohub,2013-01-20 10:36:00,
2013-01-20 04:42:00,49.6,48.7,30.14,NNE,15,0.0,1.0,97,0.00,,,0.00,meteohub,2013-01-20 10:42:00,
2013-01-20 04:47:00,49.8,48.9,30.14,NNE,16,0.0,1.0,97,0.00,,,0.00,meteohub,2013-01-20 10:47:00,
2013-01-20 04:52:00,49.8,48.9,30.14,NNE,16,0.0,1.0,97,0.00,,,0.00,meteohub,2013-01-20 10:52:00,
2013-01-20 04:57:00,49.8,48.9,30.14,NNE,15,0.0,1.0,97,0.00,,,0.00,meteohub,2013-01-20 10:57:00,
2013-01-20 05:02:00,49.8,48.9,30.14,NNE,16,0.0,0.0,97,0.00,,,0.00,meteohub,2013-01-20 11:02:00,
2013-01-20 05:07:00,49.6,48.7,30.14,NNE,16,0.0,0.0,97,0.00,,,0.00,meteohub,2013-01-20 11:07:00,
2013-01-20 05:12:00,49.3,48.4,30.14,NNE,15,0.0,1.0,97,0.00,,,0.00,meteohub,2013-01-20 11:12:00,
2013-01-20 05:17:00,49.1,48.2,30.14,NNE,15,0.0,1.0,97,0.00,,,0.00,meteohub,2013-01-20 11:17:00,
2013-01-20 05:22:00,48.9,48.0,30.14,NNE,15,0.0,1.0,97,0.00,,,0.00,meteohub,2013-01-20 11:22:00,
2013-01-20 05:27:00,48.9,48.0,30.15,NNE,15,0.0,1.0,97,0.00,,,0.00,meteohub,2013-01-20 11:27:00,
2013-01-20 05:32:00,48.9,48.0,30.15,NNE,15,0.0,1.0,97,0.00,,,0.00,meteohub,2013-01-20 11:32:00,
2013-01-20 05:37:00,48.9,48.0,30.15,NNE,15,0.0,1.0,97,0.00,,,0.00,meteohub,2013-01-20 11:37:00,
2013-01-20 05:42:00,49.1,48.2,30.15,NNE,15,0.0,1.0,97,0.00,,,0.00,meteohub,2013-01-20 11:42:00,
2013-01-20 05:47:00,49.3,48.4,30.15,NNE,15,0.0,0.0,97,0.00,,,0.00,meteohub,2013-01-20 11:47:00,
2013-01-20 05:52:00,49.3,48.4,30.15,NNE,16,0.0,0.0,97,0.00,,,0.00,meteohub,2013-01-20 11:52:00,
2013-01-20 05:57:00,49.1,48.2,30.15,NNE,16,0.0,1.0,97,0.00,,,0.00,meteohub,2013-01-20 11:57:00,
2013-01-20 06:02:00,49.1,48.2,30.15,NNE,15,0.0,1.0,97,0.00,,,0.00,meteohub,2013-01-20 12:02:00,
2013-01-20 06:07:00,49.1,48.2,30.15,NNE,15,0.0,1.0,97,0.00,,,0.00,meteohub,2013-01-20 12:07:00,
2013-01-20 06:12:00,48.9,48.0,30.16,NNE,15,0.0,0.0,97,0.00,,,0.00,meteohub,2013-01-20 12:12:00,
2013-01-20 06:17:00,48.7,47.8,30.16,NNE,15,0.0,0.0,97,0.00,,,0.00,meteohub,2013-01-20 12:17:00,
2013-01-20 06:22:00,48.9,48.0,30.16,NNE,15,0.0,0.0,97,0.00,,,0.00,meteohub,2013-01-20 12:22:00,
2013-01-20 06:28:00,48.9,48.0,30.16,NNE,15,0.0,0.0,97,0.00,,,0.00,meteohub,2013-01-20 12:28:00,
2013-01-20 06:33:00,48.9,48.0,30.15,NNE,15,0.0,0.0,97,0.00,,,0.00,meteohub,2013-01-20 12:33:00,
2013-01-20 06:38:00,48.7,47.8,30.15,NNE,15,0.0,0.0,97,0.00,,,0.00,meteohub,2013-01-20 12:38:00,
2013-01-20 06:43:00,48.7,47.8,30.16,NNE,15,0.0,0.0,97,0.00,,,0.00,meteohub,2013-01-20 12:43:00,
2013-01-20 06:48:00,48.6,47.7,30.16,NNE,15,0.0,0.0,97,0.00,,,0.00,meteohub,2013-01-20 12:48:00,
2013-01-20 06:53:00,48.6,47.7,30.16,NNE,16,0.0,0.0,97,0.00,,,0.00,meteohub,2013-01-20 12:53:00,
2013-01-20 06:58:00,48.6,47.7,30.16,NNE,15,0.0,0.0,97,0.00,,,0.00,meteohub,2013-01-20 12:58:00,
2013-01-20 07:03:00,48.4,47.5,30.16,NNE,15,0.0,0.0,97,0.00,,,0.00,meteohub,2013-01-20 13:03:00,
2013-01-20 07:08:00,48.6,47.7,30.16,NNE,16,0.0,0.0,97,0.00,,,0.00,meteohub,2013-01-20 13:08:00,
2013-01-20 07:13:00,48.6,48.0,30.16,NNE,15,0.0,0.0,98,0.00,,,0.00,meteohub,2013-01-20 13:13:00,
2013-01-20 07:18:00,48.6,48.0,30.17,NNE,15,0.0,0.0,98,0.00,,,0.00,meteohub,2013-01-20 13:18:00,
2013-01-20 07:23:00,48.7,48.2,30.17,NNE,15,0.0,0.0,98,0.00,,,0.00,meteohub,2013-01-20 13:23:00,
2013-01-20 07:28:00,48.7,48.2,30.17,NNE,15,0.0,0.0,98,0.00,,,0.00,meteohub,2013-01-20 13:28:00,
2013-01-20 07:33:00,48.7,48.2,30.17,NNE,16,0.0,0.0,98,0.00,,,0.00,meteohub,2013-01-20 13:33:00,
2013-01-20 07:38:00,48.9,48.4,30.17,NNE,16,0.0,0.0,98,0.00,,,0.00,meteohub,2013-01-20 13:38:00,
2013-01-20 07:44:00,49.3,48.7,30.18,NNE,15,0.0,0.0,98,0.00,,,0.00,meteohub,2013-01-20 13:44:00,
2013-01-20 07:49:00,49.3,48.4,30.18,NNE,16,0.0,0.0,97,0.00,,,0.00,meteohub,2013-01-20 13:49:00,
2013-01-20 07:54:00,48.9,48.0,30.18,NNE,15,0.0,0.0,97,0.00,,,0.00,meteohub,2013-01-20 13:54:00,
2013-01-20 07:59:00,48.9,48.0,30.18,NNE,16,0.0,0.0,97,0.00,,,0.00,meteohub,2013-01-20 13:59:00,
2013-01-20 08:04:00,48.9,48.0,30.18,NNE,15,0.0,1.0,97,0.00,,,0.00,meteohub,2013-01-20 14:04:00,
2013-01-20 08:09:00,49.5,48.6,30.18,NNE,15,0.0,1.0,97,0.00,,,0.00,meteohub,2013-01-20 14:09:00,
2013-01-20 08:14:00,50.2,49.6,30.19,NNE,15,0.0,1.0,98,0.00,,,0.00,meteohub,2013-01-20 14:14:00,
2013-01-20 08:19:00,50.7,50.2,30.19,NNE,15,0.0,1.0,98,0.00,,,0.00,meteohub,2013-01-20 14:19:00,
2013-01-20 08:24:00,51.3,50.7,30.19,NNE,15,0.0,0.0,98,0.00,,,0.00,meteohub,2013-01-20 14:24:00,
2013-01-20 08:29:00,52.0,51.4,30.19,NNE,15,0.0,0.0,98,0.00,,,0.00,meteohub,2013-01-20 14:29:00,
2013-01-20 08:34:00,52.5,52.0,30.19,NNE,15,0.0,0.0,98,0.00,,,0.00,meteohub,2013-01-20 14:34:00,
2013-01-20 08:39:00,53.1,52.2,30.19,NNE,15,0.0,0.0,97,0.00,,,0.00,meteohub,2013-01-20 14:39:00,
2013-01-20 08:45:00,54.1,53.2,30.19,NNE,15,0.0,0.0,97,0.00,,,0.00,meteohub,2013-01-20 14:45:00,
2013-01-20 08:50:00,54.7,53.6,30.19,NE,40,0.0,1.0,96,0.00,,,0.00,meteohub,2013-01-20 14:50:00,
2013-01-20 08:55:00,55.6,54.1,30.19,NE,41,0.0,1.0,95,0.00,,,0.00,meteohub,2013-01-20 14:55:00,
2013-01-20 09:00:00,56.1,54.5,30.19,NE,41,2.0,2.0,94,0.00,,,0.00,meteohub,2013-01-20 15:00:00,
2013-01-20 09:05:00,56.8,54.9,30.20,NE,51,0.0,2.0,93,0.00,,,0.00,meteohub,2013-01-20 15:05:00,
2013-01-20 09:10:00,57.6,55.0,30.19,NE,51,0.0,2.0,91,0.00,,,0.00,meteohub,2013-01-20 15:10:00,
2013-01-20 09:15:00,57.9,55.0,30.19,East,87,1.0,2.0,90,0.00,,,0.00,meteohub,2013-01-20 15:15:00,
2013-01-20 09:20:00,58.6,55.0,30.19,East,91,1.0,2.0,88,0.00,,,0.00,meteohub,2013-01-20 15:20:00,
2013-01-20 09:25:00,59.0,55.2,30.19,ENE,73,0.0,2.0,87,0.00,,,0.00,meteohub,2013-01-20 15:25:00,
2013-01-20 09:30:00,59.5,55.6,30.20,ENE,73,0.0,2.0,87,0.00,,,0.00,meteohub,2013-01-20 15:30:00,
2013-01-20 09:35:00,60.3,56.1,30.20,NE,54,0.0,2.0,86,0.00,,,0.00,meteohub,2013-01-20 15:35:00,
2013-01-20 09:40:00,61.0,56.5,30.20,SE,130,0.0,1.0,85,0.00,,,0.00,meteohub,2013-01-20 15:40:00,
2013-01-20 09:45:00,61.9,56.7,30.20,SE,134,1.0,2.0,83,0.00,,,0.00,meteohub,2013-01-20 15:45:00,
2013-01-20 09:50:00,62.2,56.7,30.20,ESE,115,0.0,3.0,82,0.00,,,0.00,meteohub,2013-01-20 15:50:00,
2013-01-20 09:55:00,62.8,56.8,30.20,ESE,121,1.0,3.0,81,0.00,,,0.00,meteohub,2013-01-20 15:55:00,
2013-01-20 10:00:00,63.3,57.0,30.20,East,83,3.0,4.0,80,0.00,,,0.00,meteohub,2013-01-20 16:00:00,
2013-01-20 10:05:00,63.9,57.2,30.20,East,98,2.0,4.0,79,0.00,,,0.00,meteohub,2013-01-20 16:05:00,
2013-01-20 10:10:00,64.6,57.6,30.20,SE,127,3.0,4.0,78,0.00,,,0.00,meteohub,2013-01-20 16:10:00,
2013-01-20 10:15:00,64.9,56.8,30.20,ESE,115,5.0,5.0,75,0.00,,,0.00,meteohub,2013-01-20 16:15:00,
2013-01-20 10:20:00,65.5,57.4,30.20,SE,124,2.0,5.0,75,0.00,,,0.00,meteohub,2013-01-20 16:20:00,
2013-01-20 10:25:00,66.0,56.7,30.20,ESE,120,2.0,5.0,72,0.00,,,0.00,meteohub,2013-01-20 16:25:00,
2013-01-20 10:30:00,66.6,56.8,30.20,ESE,114,3.0,6.0,71,0.00,,,0.00,meteohub,2013-01-20 16:30:00,
2013-01-20 10:35:00,66.9,55.2,30.20,ESE,111,4.0,6.0,66,0.00,,,0.00,meteohub,2013-01-20 16:35:00,
2013-01-20 10:40:00,67.3,55.6,30.20,SE,127,8.0,8.0,66,0.00,,,0.00,meteohub,2013-01-20 16:40:00,
2013-01-20 10:45:00,68.0,56.3,30.19,SE,132,3.0,8.0,66,0.00,,,0.00,meteohub,2013-01-20 16:45:00,
2013-01-20 10:51:00,68.2,55.9,30.19,SE,133,6.0,10.0,65,0.00,,,0.00,meteohub,2013-01-20 16:51:00,
2013-01-20 10:56:00,68.4,56.5,30.19,SE,143,2.0,10.0,66,0.00,,,0.00,meteohub,2013-01-20 16:56:00,
2013-01-20 11:01:00,68.5,56.7,30.19,SSE,158,9.0,10.0,66,0.00,,,0.00,meteohub,2013-01-20 17:01:00,
2013-01-20 11:06:00,68.5,56.3,30.19,ESE,110,5.0,10.0,65,0.00,,,0.00,meteohub,2013-01-20 17:06:00,
2013-01-20 11:11:00,69.1,56.8,30.19,SE,132,2.0,10.0,65,0.00,,,0.00,meteohub,2013-01-20 17:11:00,
2013-01-20 11:16:00,70.2,57.4,30.19,SE,143,6.0,9.0,64,0.00,,,0.00,meteohub,2013-01-20 17:16:00,
2013-01-20 11:21:00,70.3,57.2,30.18,SSE,158,2.0,7.0,63,0.00,,,0.00,meteohub,2013-01-20 17:21:00,
2013-01-20 11:26:00,70.7,57.6,30.18,ESE,120,5.0,8.0,63,0.00,,,0.00,meteohub,2013-01-20 17:26:00,
2013-01-20 11:31:00,70.3,57.2,30.18,SSE,150,2.0,8.0,63,0.00,,,0.00,meteohub,2013-01-20 17:31:00,
2013-01-20 11:36:00,70.9,57.7,30.17,WNW,288,0.0,9.0,63,0.00,,,0.00,meteohub,2013-01-20 17:36:00,
2013-01-20 11:41:00,72.0,57.4,30.17,South,169,5.0,9.0,60,0.00,,,0.00,meteohub,2013-01-20 17:41:00,
2013-01-20 11:46:00,72.0,56.8,30.17,West,262,1.0,9.0,59,0.00,,,0.00,meteohub,2013-01-20 17:46:00,
2013-01-20 11:51:00,71.4,55.9,30.17,South,178,3.0,8.0,58,0.00,,,0.00,meteohub,2013-01-20 17:51:00,
2013-01-20 11:56:00,71.6,56.1,30.17,SE,143,4.0,8.0,58,0.00,,,0.00,meteohub,2013-01-20 17:56:00,
2013-01-20 12:01:00,71.8,55.2,30.16,South,176,6.0,8.0,56,0.00,,,0.00,meteohub,2013-01-20 18:01:00,
2013-01-20 12:06:00,72.1,55.6,30.16,South,184,7.0,8.0,56,0.00,,,0.00,meteohub,2013-01-20 18:06:00,
2013-01-20 12:11:00,72.1,55.6,30.15,SW,236,2.0,9.0,56,0.00,,,0.00,meteohub,2013-01-20 18:11:00,
2013-01-20 12:16:00,72.5,55.4,30.15,SSE,167,1.0,9.0,55,0.00,,,0.00,meteohub,2013-01-20 18:16:00,
2013-01-20 12:21:00,72.3,55.2,30.14,WSW,250,0.0,9.0,55,0.00,,,0.00,meteohub,2013-01-20 18:21:00,
2013-01-20 12:26:00,72.1,53.6,30.14,South,187,4.0,7.0,52,0.00,,,0.00,meteohub,2013-01-20 18:26:00,
2013-01-20 12:31:00,72.3,54.1,30.14,SW,236,0.0,8.0,53,0.00,,,0.00,meteohub,2013-01-20 18:31:00,
2013-01-20 12:36:00,72.7,54.5,30.13,SSE,149,6.0,8.0,53,0.00,,,0.00,meteohub,2013-01-20 18:36:00,
2013-01-20 12:41:00,72.9,54.1,30.12,SSE,155,5.0,9.0,52,0.00,,,0.00,meteohub,2013-01-20 18:41:00,
2013-01-20 12:46:00,72.3,53.8,30.12,SE,139,1.0,10.0,52,0.00,,,0.00,meteohub,2013-01-20 18:46:00,
2013-01-20 12:51:00,72.9,54.1,30.12,SE,127,0.0,10.0,52,0.00,,,0.00,meteohub,2013-01-20 18:51:00,
2013-01-20 12:56:00,73.6,54.9,30.11,SSW,205,4.0,8.0,52,0.00,,,0.00,meteohub,2013-01-20 18:56:00,
2013-01-20 13:01:00,73.8,54.5,30.11,SSW,200,6.0,9.0,51,0.00,,,0.00,meteohub,2013-01-20 19:01:00,
2013-01-20 13:06:00,74.1,54.3,30.10,SE,137,4.0,9.0,50,0.00,,,0.00,meteohub,2013-01-20 19:06:00,
2013-01-20 13:11:00,73.6,54.9,30.10,SE,127,3.0,9.0,52,0.00,,,0.00,meteohub,2013-01-20 19:11:00,
2013-01-20 13:16:00,73.8,54.5,30.09,SE,130,1.0,8.0,51,0.00,,,0.00,meteohub,2013-01-20 19:16:00,
2013-01-20 13:21:00,74.1,53.8,30.09,South,191,7.0,8.0,49,0.00,,,0.00,meteohub,2013-01-20 19:21:00,
2013-01-20 13:26:00,74.1,52.5,30.09,SE,127,4.0,12.0,47,0.00,,,0.00,meteohub,2013-01-20 19:26:00,
2013-01-20 13:31:00,73.9,53.1,30.08,SSE,162,0.0,12.0,48,0.00,,,0.00,meteohub,2013-01-20 19:31:00,
2013-01-20 13:36:00,74.7,53.1,30.08,SE,143,1.0,11.0,47,0.00,,,0.00,meteohub,2013-01-20 19:36:00,
2013-01-20 13:41:00,74.8,52.7,30.08,SE,136,3.0,6.0,46,0.00,,,0.00,meteohub,2013-01-20 19:41:00,
2013-01-20 13:46:00,75.0,53.4,30.07,SSW,204,0.0,9.0,47,0.00,,,0.00,meteohub,2013-01-20 19:46:00,
2013-01-20 13:51:00,74.8,52.7,30.07,SW,216,3.0,9.0,46,0.00,,,0.00,meteohub,2013-01-20 19:51:00,
2013-01-20 13:56:00,74.7,52.5,30.07,ESE,120,2.0,9.0,46,0.00,,,0.00,meteohub,2013-01-20 19:56:00,
2013-01-20 14:01:00,74.7,53.1,30.07,South,188,6.0,9.0,47,0.00,,,0.00,meteohub,2013-01-20 20:01:00,
2013-01-20 14:06:00,74.1,53.2,30.06,SSE,155,4.0,9.0,48,0.00,,,0.00,meteohub,2013-01-20 20:06:00,
2013-01-20 14:11:00,74.7,53.6,30.06,SSE,166,0.0,9.0,48,0.00,,,0.00,meteohub,2013-01-20 20:11:00,
2013-01-20 14:16:00,75.0,52.9,30.06,ESE,118,3.0,7.0,46,0.00,,,0.00,meteohub,2013-01-20 20:16:00,
2013-01-20 14:21:00,74.5,52.9,30.06,ESE,118,5.0,10.0,47,0.00,,,0.00,meteohub,2013-01-20 20:21:00,
2013-01-20 14:26:00,74.1,53.2,30.05,ENE,70,0.0,10.0,48,0.00,,,0.00,meteohub,2013-01-20 20:26:00,
2013-01-20 14:31:00,74.5,53.4,30.05,East,101,1.0,10.0,48,0.00,,,0.00,meteohub,2013-01-20 20:31:00,
2013-01-20 14:36:00,74.5,52.9,30.05,ENE,77,0.0,9.0,47,0.00,,,0.00,meteohub,2013-01-20 20:36:00,
2013-01-20 14:41:00,74.1,53.2,30.05,SE,129,2.0,9.0,48,0.00,,,0.00,meteohub,2013-01-20 20:41:00,
2013-01-20 14:46:00,73.9,53.1,30.05,SE,132,3.0,9.0,48,0.00,,,0.00,meteohub,2013-01-20 20:46:00,
2013-01-20 14:51:00,73.9,55.8,30.05,ESE,120,11.0,13.0,53,0.00,,,0.00,meteohub,2013-01-20 20:51:00,
2013-01-20 14:57:00,73.6,55.4,30.05,East,96,4.0,14.0,53,0.00,,,0.00,meteohub,2013-01-20 20:57:00,
2013-01-20 15:02:00,73.0,56.8,30.04,NE,49,9.0,14.0,57,0.00,,,0.00,meteohub,2013-01-20 21:02:00,
2013-01-20 15:07:00,72.9,56.3,30.04,East,93,3.0,14.0,56,0.00,,,0.00,meteohub,2013-01-20 21:07:00,
2013-01-20 15:12:00,72.7,56.1,30.04,ESE,104,8.0,14.0,56,0.00,,,0.00,meteohub,2013-01-20 21:12:00,
2013-01-20 15:17:00,72.9,56.7,30.05,East,90,4.0,14.0,57,0.00,,,0.00,meteohub,2013-01-20 21:17:00,
2013-01-20 15:22:00,73.0,56.8,30.04,ESE,115,5.0,13.0,57,0.00,,,0.00,meteohub,2013-01-20 21:22:00,
2013-01-20 15:27:00,72.9,56.7,30.04,East,83,7.0,13.0,57,0.00,,,0.00,meteohub,2013-01-20 21:27:00,
2013-01-20 15:32:00,73.0,56.5,30.04,ESE,119,13.0,15.0,56,0.00,,,0.00,meteohub,2013-01-20 21:32:00,
2013-01-20 15:37:00,72.7,56.1,30.04,ESE,116,5.0,17.0,56,0.00,,,0.00,meteohub,2013-01-20 21:37:00,
2013-01-20 15:43:00,72.7,56.1,30.04,SE,146,8.0,17.0,56,0.00,,,0.00,meteohub,2013-01-20 21:43:00,
2013-01-20 15:48:00,72.1,55.6,30.05,East,101,10.0,17.0,56,0.00,,,0.00,meteohub,2013-01-20 21:48:00,
2013-01-20 15:53:00,72.0,55.9,30.04,ESE,108,7.0,15.0,57,0.00,,,0.00,meteohub,2013-01-20 21:53:00,
2013-01-20 15:58:00,72.0,55.4,30.04,ESE,107,8.0,15.0,56,0.00,,,0.00,meteohub,2013-01-20 21:58:00,
2013-01-20 16:03:00,71.8,55.2,30.04,East,98,7.0,15.0,56,0.00,,,0.00,meteohub,2013-01-20 22:03:00,
2013-01-20 16:08:00,71.4,55.4,30.04,East,100,9.0,16.0,57,0.00,,,0.00,meteohub,2013-01-20 22:08:00,
2013-01-20 16:13:00,71.2,54.7,30.04,East,90,7.0,16.0,56,0.00,,,0.00,meteohub,2013-01-20 22:13:00,
2013-01-20 16:18:00,71.1,55.0,30.04,ENE,74,8.0,16.0,57,0.00,,,0.00,meteohub,2013-01-20 22:18:00,
2013-01-20 16:23:00,70.9,55.4,30.04,ESE,113,7.0,16.0,58,0.00,,,0.00,meteohub,2013-01-20 22:23:00,
2013-01-20 16:28:00,71.1,55.0,30.04,East,98,8.0,13.0,57,0.00,,,0.00,meteohub,2013-01-20 22:28:00,
2013-01-20 16:33:00,71.1,54.5,30.04,ESE,113,11.0,13.0,56,0.00,,,0.00,meteohub,2013-01-20 22:33:00,
2013-01-20 16:38:00,70.9,55.4,30.04,ENE,72,7.0,15.0,58,0.00,,,0.00,meteohub,2013-01-20 22:38:00,
2013-01-20 16:43:00,71.1,55.6,30.04,East,100,7.0,15.0,58,0.00,,,0.00,meteohub,2013-01-20 22:43:00,
2013-01-20 16:48:00,70.9,54.3,30.04,ESE,104,12.0,15.0,56,0.00,,,0.00,meteohub,2013-01-20 22:48:00,
2013-01-20 16:54:00,70.7,55.2,30.05,East,82,13.0,15.0,58,0.00,,,0.00,meteohub,2013-01-20 22:54:00,
2013-01-20 16:59:00,70.5,55.6,30.05,East,83,8.0,15.0,59,0.00,,,0.00,meteohub,2013-01-20 22:59:00,
2013-01-20 17:04:00,70.2,55.2,30.04,ESE,112,8.0,16.0,59,0.00,,,0.00,meteohub,2013-01-20 23:04:00,
2013-01-20 17:09:00,70.0,55.0,30.04,East,84,12.0,16.0,59,0.00,,,0.00,meteohub,2013-01-20 23:09:00,
2013-01-20 17:14:00,69.6,55.0,30.05,ESE,116,11.0,16.0,60,0.00,,,0.00,meteohub,2013-01-20 23:14:00,
2013-01-20 17:19:00,69.4,54.9,30.05,ESE,120,11.0,16.0,60,0.00,,,0.00,meteohub,2013-01-20 23:19:00,
2013-01-20 17:24:00,69.1,55.6,30.05,East,88,8.0,16.0,62,0.00,,,0.00,meteohub,2013-01-20 23:24:00,
2013-01-20 17:29:00,68.7,55.6,30.05,ESE,121,12.0,16.0,63,0.00,,,0.00,meteohub,2013-01-20 23:29:00,
2013-01-20 17:34:00,68.5,55.9,30.05,SE,126,7.0,16.0,64,0.00,,,0.00,meteohub,2013-01-20 23:34:00,
2013-01-20 17:39:00,68.0,55.8,30.06,ESE,113,10.0,15.0,65,0.00,,,0.00,meteohub,2013-01-20 23:39:00,
2013-01-20 17:44:00,67.6,55.9,30.06,ESE,105,9.0,15.0,66,0.00,,,0.00,meteohub,2013-01-20 23:44:00,
2013-01-20 17:49:00,67.3,56.3,30.06,ESE,104,9.0,15.0,68,0.00,,,0.00,meteohub,2013-01-20 23:49:00,
2013-01-20 17:54:00,66.9,55.9,30.06,East,100,5.0,15.0,68,0.00,,,0.00,meteohub,2013-01-20 23:54:00,
2013-01-20 17:59:00,66.6,56.1,30.06,ESE,120,6.0,15.0,69,0.00,,,0.00,meteohub,2013-01-20 23:59:00,
2013-01-20 18:04:00,66.4,56.3,30.06,SE,129,7.0,13.0,70,0.00,,,0.00,meteohub,2013-01-21 00:04:00,
2013-01-20 18:09:00,66.0,55.9,30.06,ESE,114,5.0,11.0,70,0.00,,,0.00,meteohub,2013-01-21 00:09:00,
2013-01-20 18:15:00,65.8,56.1,30.06,ESE,111,6.0,11.0,71,0.00,,,0.00,meteohub,2013-01-21 00:15:00,
2013-01-20 18:20:00,65.7,55.6,30.06,ESE,110,10.0,10.0,70,0.00,,,0.00,meteohub,2013-01-21 00:20:00,
2013-01-20 18:25:00,65.3,55.6,30.06,ESE,120,7.0,10.0,71,0.00,,,0.00,meteohub,2013-01-21 00:25:00,
2013-01-20 18:30:00,64.9,55.8,30.06,ESE,109,7.0,10.0,72,0.00,,,0.00,meteohub,2013-01-21 00:30:00,
2013-01-20 18:35:00,64.8,55.6,30.06,ESE,114,7.0,10.0,72,0.00,,,0.00,meteohub,2013-01-21 00:35:00,
2013-01-20 18:40:00,64.6,55.8,30.06,SE,127,5.0,10.0,73,0.00,,,0.00,meteohub,2013-01-21 00:40:00,
2013-01-20 18:45:00,64.2,55.4,30.07,ESE,122,5.0,10.0,73,0.00,,,0.00,meteohub,2013-01-21 00:45:00,
2013-01-20 18:50:00,63.9,55.0,30.07,SE,126,5.0,10.0,73,0.00,,,0.00,meteohub,2013-01-21 00:50:00,
2013-01-20 18:55:00,63.7,55.2,30.07,SE,124,6.0,10.0,74,0.00,,,0.00,meteohub,2013-01-21 00:55:00,
2013-01-20 19:00:00,63.3,55.2,30.07,ESE,107,5.0,8.0,75,0.00,,,0.00,meteohub,2013-01-21 01:00:00,
2013-01-20 19:05:00,63.1,55.4,30.08,ESE,110,8.0,8.0,76,0.00,,,0.00,meteohub,2013-01-21 01:05:00,
2013-01-20 19:10:00,63.0,55.2,30.08,ESE,112,5.0,8.0,76,0.00,,,0.00,meteohub,2013-01-21 01:10:00,
2013-01-20 19:15:00,62.8,55.0,30.07,ESE,121,4.0,8.0,76,0.00,,,0.00,meteohub,2013-01-21 01:15:00,
2013-01-20 19:20:00,62.4,55.0,30.08,ESE,115,6.0,8.0,77,0.00,,,0.00,meteohub,2013-01-21 01:20:00,
2013-01-20 19:26:00,62.4,55.0,30.07,East,100,4.0,8.0,77,0.00,,,0.00,meteohub,2013-01-21 01:26:00,
2013-01-20 19:31:00,62.1,55.0,30.08,ESE,122,3.0,7.0,78,0.00,,,0.00,meteohub,2013-01-21 01:31:00,
2013-01-20 19:36:00,62.1,55.4,30.07,SE,124,5.0,7.0,79,0.00,,,0.00,meteohub,2013-01-21 01:36:00,
2013-01-20 19:41:00,61.9,55.2,30.08,ESE,121,5.0,7.0,79,0.00,,,0.00,meteohub,2013-01-21 01:41:00,
2013-01-20 19:46:00,61.7,55.4,30.08,ESE,110,5.0,7.0,80,0.00,,,0.00,meteohub,2013-01-21 01:46:00,
2013-01-20 19:51:00,61.7,55.4,30.08,ESE,107,5.0,7.0,80,0.00,,,0.00,meteohub,2013-01-21 01:51:00,
2013-01-20 19:57:00,61.5,55.2,30.08,ESE,119,5.0,8.0,80,0.00,,,0.00,meteohub,2013-01-21 01:57:00,
2013-01-20 20:02:00,61.5,55.2,30.08,ESE,118,5.0,8.0,80,0.00,,,0.00,meteohub,2013-01-21 02:02:00,
2013-01-20 20:07:00,61.5,55.2,30.08,ESE,110,5.0,8.0,80,0.00,,,0.00,meteohub,2013-01-21 02:07:00,
2013-01-20 20:12:00,61.3,55.0,30.08,East,98,7.0,7.0,80,0.00,,,0.00,meteohub,2013-01-21 02:12:00,
2013-01-20 20:17:00,61.3,55.4,30.08,ESE,112,4.0,7.0,81,0.00,,,0.00,meteohub,2013-01-21 02:17:00,
2013-01-20 20:22:00,61.2,55.2,30.09,ESE,121,4.0,7.0,81,0.00,,,0.00,meteohub,2013-01-21 02:22:00,
2013-01-20 20:27:00,61.0,55.0,30.08,ESE,112,3.0,7.0,81,0.00,,,0.00,meteohub,2013-01-21 02:27:00,
2013-01-20 20:32:00,60.8,54.9,30.08,SE,125,3.0,5.0,81,0.00,,,0.00,meteohub,2013-01-21 02:32:00,
2013-01-20 20:37:00,60.4,54.5,30.08,ESE,123,3.0,5.0,81,0.00,,,0.00,meteohub,2013-01-21 02:37:00,
2013-01-20 20:42:00,60.4,54.9,30.09,ESE,108,6.0,6.0,82,0.00,,,0.00,meteohub,2013-01-21 02:42:00,
2013-01-20 20:47:00,60.3,54.7,30.08,ESE,110,3.0,6.0,82,0.00,,,0.00,meteohub,2013-01-21 02:47:00,
2013-01-20 20:52:00,60.3,54.7,30.09,ESE,114,4.0,6.0,82,0.00,,,0.00,meteohub,2013-01-21 02:52:00,
2013-01-20 20:57:00,60.3,54.7,30.08,East,98,4.0,6.0,82,0.00,,,0.00,meteohub,2013-01-21 02:57:00,
2013-01-20 21:02:00,60.1,54.5,30.08,ESE,122,3.0,5.0,82,0.00,,,0.00,meteohub,2013-01-21 03:02:00,
2013-01-20 21:07:00,59.9,54.7,30.08,ESE,110,4.0,5.0,83,0.00,,,0.00,meteohub,2013-01-21 03:07:00,
2013-01-20 21:13:00,59.7,54.5,30.08,ESE,107,2.0,5.0,83,0.00,,,0.00,meteohub,2013-01-21 03:13:00,
2013-01-20 21:18:00,59.5,54.3,30.08,SE,130,4.0,6.0,83,0.00,,,0.00,meteohub,2013-01-21 03:18:00,
2013-01-20 21:23:00,59.5,54.3,30.09,ESE,115,4.0,6.0,83,0.00,,,0.00,meteohub,2013-01-21 03:23:00,
2013-01-20 21:28:00,59.4,54.1,30.09,SE,124,3.0,6.0,83,0.00,,,0.00,meteohub,2013-01-21 03:28:00,
2013-01-20 21:33:00,59.2,54.0,30.09,ESE,122,4.0,6.0,83,0.00,,,0.00,meteohub,2013-01-21 03:33:00,
2013-01-20 21:38:00,59.0,53.8,30.09,SE,133,2.0,6.0,83,0.00,,,0.00,meteohub,2013-01-21 03:38:00,
2013-01-20 21:43:00,58.8,54.0,30.09,ESE,112,3.0,6.0,84,0.00,,,0.00,meteohub,2013-01-21 03:43:00,
2013-01-20 21:48:00,58.6,53.8,30.09,ESE,116,4.0,5.0,84,0.00,,,0.00,meteohub,2013-01-21 03:48:00,
2013-01-20 21:53:00,58.6,53.8,30.09,SE,131,3.0,5.0,84,0.00,,,0.00,meteohub,2013-01-21 03:53:00,
2013-01-20 21:58:00,58.5,53.6,30.09,SE,124,3.0,5.0,84,0.00,,,0.00,meteohub,2013-01-21 03:58:00,
2013-01-20 22:03:00,58.5,53.6,30.09,ESE,105,3.0,5.0,84,0.00,,,0.00,meteohub,2013-01-21 04:03:00,
2013-01-20 22:08:00,58.5,54.0,30.09,ESE,109,3.0,5.0,85,0.00,,,0.00,meteohub,2013-01-21 04:08:00,
2013-01-20 22:13:00,58.5,54.0,30.09,ESE,119,4.0,5.0,85,0.00,,,0.00,meteohub,2013-01-21 04:13:00,
2013-01-20 22:18:00,58.5,54.0,30.09,SE,128,2.0,5.0,85,0.00,,,0.00,meteohub,2013-01-21 04:18:00,
2013-01-20 22:23:00,58.5,54.0,30.10,SE,124,3.0,5.0,85,0.00,,,0.00,meteohub,2013-01-21 04:23:00,
2013-01-20 22:28:00,58.3,53.8,30.10,ESE,115,3.0,4.0,85,0.00,,,0.00,meteohub,2013-01-21 04:28:00,
2013-01-20 22:34:00,58.1,53.6,30.10,ESE,120,1.0,4.0,85,0.00,,,0.00,meteohub,2013-01-21 04:34:00,
2013-01-20 22:39:00,57.9,53.4,30.10,ESE,111,2.0,4.0,85,0.00,,,0.00,meteohub,2013-01-21 04:39:00,
2013-01-20 22:44:00,57.9,53.4,30.09,ESE,115,2.0,4.0,85,0.00,,,0.00,meteohub,2013-01-21 04:44:00,
2013-01-20 22:49:00,57.7,53.6,30.09,ESE,102,1.0,3.0,86,0.00,,,0.00,meteohub,2013-01-21 04:49:00,
2013-01-20 22:54:00,57.7,53.6,30.09,SE,134,1.0,3.0,86,0.00,,,0.00,meteohub,2013-01-21 04:54:00,
2013-01-20 22:59:00,57.6,53.4,30.09,SE,136,2.0,3.0,86,0.00,,,0.00,meteohub,2013-01-21 04:59:00,
2013-01-20 23:00:00,57.6,53.4,30.09,SE,126,2.0,3.0,86,0.00,,,0.00,meteohub,2013-01-21 05:00:00,
2013-01-20 23:01:00,57.6,53.4,30.09,SE,130,1.0,3.0,86,0.00,,,0.00,meteohub,2013-01-21 05:01:00,
2013-01-20 23:02:00,57.6,53.4,30.09,SE,129,1.0,3.0,86,0.00,,,0.00,meteohub,2013-01-21 05:02:00,
2013-01-20 23:07:00,57.4,53.2,30.10,SE,135,1.0,3.0,86,0.00,,,0.00,meteohub,2013-01-21 05:07:00,
2013-01-20 23:12:00,57.4,53.2,30.09,SE,136,0.0,3.0,86,0.00,,,0.00,meteohub,2013-01-21 05:12:00,
2013-01-20 23:17:00,57.2,53.1,30.09,SE,134,0.0,3.0,86,0.00,,,0.00,meteohub,2013-01-21 05:17:00,
2013-01-20 23:23:00,57.0,53.2,30.09,SSE,148,0.0,2.0,87,0.00,,,0.00,meteohub,2013-01-21 05:23:00,
2013-01-20 23:28:00,56.8,53.1,30.09,SE,141,1.0,1.0,87,0.00,,,0.00,meteohub,2013-01-21 05:28:00,
2013-01-20 23:33:00,56.8,53.1,30.09,SE,133,1.0,2.0,87,0.00,,,0.00,meteohub,2013-01-21 05:33:00,
2013-01-20 23:38:00,56.8,53.2,30.09,SSE,159,1.0,2.0,88,0.00,,,0.00,meteohub,2013-01-21 05:38:00,
2013-01-20 23:43:00,56.8,53.1,30.10,SSE,163,1.0,3.0,87,0.00,,,0.00,meteohub,2013-01-21 05:43:00,
2013-01-20 23:48:00,56.5,52.9,30.09,SSE,162,1.0,3.0,88,0.00,,,0.00,meteohub,2013-01-21 05:48:00,
2013-01-20 23:53:00,56.3,52.9,30.09,SSE,163,1.0,3.0,88,0.00,,,0.00,meteohub,2013-01-21 05:53:00,
2013-01-20 23:58:00,56.1,52.7,30.09,SSE,158,1.0,3.0,88,0.00,,,0.00,meteohub,2013-01-21 05:58:00,